Weather History for Hinckley, MN

Change the Weather History Date:

Wednesday, May 22, 2013

  Actual Average (KJMR) Record (KJMR)
Temperature  
Mean Temperature 46 °F -  
Max Temperature 50 °F 71 °F 93 °F (1964)
Min Temperature 42 °F 44 °F 23 °F (1987)
Degree Days  
Heating Degree Days 19    
Moisture  
Dew Point 43 °F    
Average Humidity 93    
Maximum Humidity 100    
Minimum Humidity 82    
Precipitation  
Precipitation 0.02 in - - ()
Sea Level Pressure  
Sea Level Pressure 29.85 in    
Wind  
Wind Speed 10 mph (NNE)    
Max Wind Speed 18 mph    
Max Gust Speed 26 mph    
Visibility 9 miles    
Events Rain    
Averages and records for this station are not official NWS values.
T = Trace of Precipitation, MM = Missing Value Source: NWS Daily Summary

Daily Weather History Graph

Daily Weather History Graph

Search for Another Location

Airport:

Trip Planner

Search our weather history database for the weather conditions in past years. The results will help you decide how hot, cold, wet, or windy it might be!

Date:

Astronomy

May. 22, 2013 Rise Set
Actual Time 5:31 AM CDT 8:45 PM CDT
Civil Twilight 4:55 AM CDT 9:21 PM CDT
Nautical Twilight 4:08 AM CDT 10:09 PM CDT
Astronomical Twilight 3:10 AM CDT 11:07 PM CDT
Moon 6:01 PM CDT (5/22) 3:45 AM CDT (5/22)
Length of Visible Light 16h 26m
Length of Day
15h 13m
Waxing Gibbous, 91% of the Moon is Illuminated
May 22
Waxing Gibbous
May 24
Full
May 31
Last Quarter
Jun 8
New
Jun 16
First Quarter

Hourly Weather History & Observations

Time (CDT) Temp. Windchill Dew Point Humidity Pressure Visibility Wind Dir Wind Speed Gust Speed Precip Events Conditions
12:18 AM 42.8 °F 36.6 °F 42.8 °F 100% 29.75 in 7.0 mi NNE 11.5 mph 16.1 mph N/A   Overcast
12:37 AM 42.8 °F 37.5 °F 42.8 °F 100% 29.76 in 7.0 mi NNE 9.2 mph - N/A   Overcast
12:57 AM 42.8 °F 37.5 °F 41.0 °F 93% 29.76 in 10.0 mi NNE 9.2 mph - N/A   Overcast
1:17 AM 42.8 °F 37.0 °F 41.0 °F 93% 29.76 in 10.0 mi NNE 10.4 mph - N/A   Overcast
1:37 AM 42.8 °F 37.5 °F 41.0 °F 93% 29.76 in 10.0 mi NNE 9.2 mph - N/A   Overcast
1:58 AM 42.8 °F 37.0 °F 41.0 °F 93% 29.75 in 10.0 mi NNE 10.4 mph - N/A   Overcast
2:17 AM 42.8 °F 38.0 °F 41.0 °F 93% 29.76 in 10.0 mi NE 8.1 mph - N/A   Overcast
2:37 AM 42.8 °F 38.0 °F 41.0 °F 93% 29.75 in 10.0 mi NE 8.1 mph - N/A   Overcast
2:57 AM 42.8 °F 37.0 °F 41.0 °F 93% 29.76 in 10.0 mi NNE 10.4 mph - N/A   Light Drizzle
3:17 AM 42.8 °F 38.0 °F 41.0 °F 93% 29.75 in 7.0 mi NNE 8.1 mph - N/A   Drizzle
3:37 AM 42.8 °F 38.6 °F 41.0 °F 93% 29.75 in 7.0 mi NNE 6.9 mph - N/A   Drizzle
3:57 AM 42.8 °F 38.6 °F 41.0 °F 93% 29.76 in 7.0 mi NE 6.9 mph - N/A   Overcast
4:18 AM 42.8 °F 39.3 °F 41.0 °F 93% 29.76 in 7.0 mi NNE 5.8 mph - N/A   Drizzle
4:37 AM 42.8 °F 38.0 °F 42.8 °F 100% 29.76 in 7.0 mi NE 8.1 mph - N/A   Drizzle
4:57 AM 42.8 °F 38.6 °F 42.8 °F 100% 29.77 in 7.0 mi NNE 6.9 mph - 0.01 in   Drizzle
5:18 AM 42.8 °F 38.6 °F 42.8 °F 100% 29.77 in 7.0 mi NE 6.9 mph - N/A   Drizzle
5:37 AM 42.8 °F 38.6 °F 42.8 °F 100% 29.78 in 10.0 mi NE 6.9 mph - N/A   Light Drizzle
5:57 AM 42.8 °F 38.6 °F 42.8 °F 100% 29.78 in 10.0 mi NNE 6.9 mph - N/A Rain Light Rain
6:18 AM 42.8 °F 37.5 °F 42.8 °F 100% 29.78 in 10.0 mi NNE 9.2 mph - N/A   Overcast
6:37 AM 42.8 °F 37.5 °F 42.8 °F 100% 29.77 in 10.0 mi NE 9.2 mph - N/A   Overcast
6:58 AM 42.8 °F 38.0 °F 42.8 °F 100% 29.78 in 10.0 mi NE 8.1 mph - N/A   Overcast
7:17 AM 42.8 °F 38.0 °F 42.8 °F 100% 29.78 in 10.0 mi NNE 8.1 mph - N/A   Overcast
7:37 AM 42.8 °F 38.0 °F 42.8 °F 100% 29.78 in 10.0 mi NNE 8.1 mph - N/A   Overcast
7:58 AM 44.6 °F 40.2 °F 42.8 °F 93% 29.79 in 10.0 mi NNE 8.1 mph - N/A   Overcast
8:17 AM 44.6 °F 39.2 °F 42.8 °F 93% 29.79 in 10.0 mi NNE 10.4 mph - N/A   Overcast
8:38 AM 44.6 °F 39.2 °F 42.8 °F 93% 29.79 in 10.0 mi NNE 10.4 mph - N/A   Overcast
8:58 AM 44.6 °F 38.8 °F 42.8 °F 93% 29.79 in 10.0 mi NNE 11.5 mph 18.4 mph N/A   Overcast
9:17 AM 44.6 °F 37.8 °F 42.8 °F 93% 29.79 in 10.0 mi NNE 15.0 mph 18.4 mph N/A   Overcast
9:38 AM 46.4 °F 39.8 °F 44.6 °F 93% 29.79 in 10.0 mi NNE 16.1 mph 20.7 mph N/A   Overcast
9:57 AM 46.4 °F 41.5 °F 44.6 °F 93% 29.80 in 10.0 mi NNE 10.4 mph 16.1 mph N/A   Overcast
10:17 AM 46.4 °F 40.1 °F 44.6 °F 93% 29.80 in 10.0 mi NNE 15.0 mph 18.4 mph N/A   Overcast
10:38 AM 46.4 °F 41.5 °F 44.6 °F 93% 29.81 in 10.0 mi NE 10.4 mph 18.4 mph N/A   Overcast
10:57 AM 46.4 °F 41.1 °F 44.6 °F 93% 29.82 in 10.0 mi NNE 11.5 mph 21.9 mph N/A   Overcast
11:18 AM 48.2 °F - 44.6 °F 87% 29.82 in 10.0 mi NE 13.8 mph 23.0 mph N/A   Overcast
11:37 AM 46.4 °F 39.8 °F 44.6 °F 93% 29.82 in 10.0 mi NNE 16.1 mph 23.0 mph N/A   Overcast
11:57 AM 46.4 °F 39.5 °F 44.6 °F 93% 29.82 in 10.0 mi NE 17.3 mph 26.5 mph N/A   Overcast
12:18 PM 48.2 °F - 44.6 °F 87% 29.82 in 7.0 mi NNE 18.4 mph 25.3 mph N/A   Overcast
12:37 PM 48.2 °F - 44.6 °F 87% 29.82 in 10.0 mi NNE 10.4 mph 23.0 mph N/A   Overcast
12:58 PM 48.2 °F - 44.6 °F 87% 29.83 in 10.0 mi NNE 11.5 mph 18.4 mph N/A   Overcast
1:17 PM 48.2 °F - 44.6 °F 87% 29.84 in 7.0 mi NNE 16.1 mph 24.2 mph N/A Rain Light Rain
1:37 PM 46.4 °F 40.1 °F 44.6 °F 93% 29.84 in 7.0 mi NNE 15.0 mph 24.2 mph N/A   Overcast
1:58 PM 46.4 °F 40.1 °F 44.6 °F 93% 29.84 in 10.0 mi NNE 15.0 mph 23.0 mph N/A Rain Light Rain
2:17 PM 48.2 °F - 46.4 °F 93% 29.85 in 10.0 mi NNE 13.8 mph 19.6 mph N/A   Overcast
2:38 PM 48.2 °F - 46.4 °F 93% 29.85 in 10.0 mi NNE 13.8 mph 21.9 mph N/A   Overcast
2:57 PM 48.2 °F - 46.4 °F 93% 29.86 in 10.0 mi NNE 15.0 mph - N/A Rain Light Rain
3:18 PM 46.4 °F 40.1 °F 46.4 °F 100% 29.87 in 7.0 mi NNE 15.0 mph 21.9 mph N/A Rain Light Rain
3:37 PM 46.4 °F 40.1 °F 44.6 °F 93% 29.88 in 10.0 mi NNE 15.0 mph 21.9 mph N/A Rain Light Rain
3:58 PM 46.4 °F 40.1 °F 44.6 °F 93% 29.89 in 7.0 mi NNE 15.0 mph 24.2 mph N/A Rain Light Rain
4:17 PM 46.4 °F 41.1 °F 44.6 °F 93% 29.89 in 10.0 mi NNE 11.5 mph 20.7 mph N/A Rain Light Rain
4:38 PM 46.4 °F 40.4 °F 44.6 °F 93% 29.90 in 10.0 mi NNE 13.8 mph 20.7 mph N/A Rain Light Rain
4:58 PM 46.4 °F 41.1 °F 44.6 °F 93% 29.91 in 10.0 mi NNE 11.5 mph 21.9 mph 0.01 in Rain Light Rain
5:17 PM 46.4 °F 40.4 °F 44.6 °F 93% 29.91 in 10.0 mi NNE 13.8 mph - N/A Rain Rain
5:38 PM 46.4 °F 41.1 °F 44.6 °F 93% 29.92 in 10.0 mi NNE 11.5 mph 17.3 mph N/A Rain Light Rain
5:57 PM 46.4 °F 40.7 °F 44.6 °F 93% 29.92 in 10.0 mi NNE 12.7 mph - N/A   Light Drizzle
6:18 PM 48.2 °F - 44.6 °F 87% 29.93 in 10.0 mi NNE 10.4 mph 16.1 mph N/A   Light Drizzle
6:38 PM 48.2 °F - 44.6 °F 87% 29.93 in 10.0 mi NE 5.8 mph 16.1 mph N/A Rain Light Rain
6:57 PM 50.0 °F - 44.6 °F 82% 29.93 in 10.0 mi NE 6.9 mph - N/A   Light Drizzle
7:18 PM 50.0 °F - 44.6 °F 82% 29.94 in 10.0 mi NE 6.9 mph - N/A   Light Drizzle
7:38 PM 50.0 °F - 44.6 °F 82% 29.95 in 10.0 mi NNE 6.9 mph - N/A   Overcast
7:57 PM 48.2 °F - 44.6 °F 87% 29.95 in 10.0 mi NNE 6.9 mph - N/A   Overcast
8:18 PM 48.2 °F - 44.6 °F 87% 29.96 in 10.0 mi North 8.1 mph - N/A   Overcast
8:37 PM 48.2 °F - 44.6 °F 87% 29.96 in 10.0 mi NNE 8.1 mph - N/A   Overcast
8:58 PM 46.4 °F 42.9 °F 44.6 °F 93% 29.96 in 10.0 mi North 6.9 mph - N/A   Overcast
9:18 PM 46.4 °F 42.9 °F 42.8 °F 87% 29.97 in 10.0 mi North 6.9 mph - N/A   Scattered Clouds
9:37 PM 46.4 °F 43.5 °F 42.8 °F 87% 29.98 in 10.0 mi North 5.8 mph - N/A   Clear
9:58 PM 44.6 °F 41.4 °F 42.8 °F 93% 29.99 in 10.0 mi NNE 5.8 mph - N/A   Clear
10:17 PM 44.6 °F 41.4 °F 42.8 °F 93% 30.00 in 10.0 mi North 5.8 mph - N/A   Clear
10:38 PM 44.6 °F 42.2 °F 41.0 °F 87% 30.01 in 10.0 mi North 4.6 mph - N/A   Clear
10:58 PM 42.8 °F 39.3 °F 41.0 °F 93% 30.01 in 10.0 mi North 5.8 mph - N/A   Clear
11:17 PM 42.8 °F 39.3 °F 41.0 °F 93% 30.03 in 10.0 mi North 5.8 mph - N/A   Clear
11:38 PM 42.8 °F 39.3 °F 39.2 °F 87% 30.04 in 10.0 mi North 5.8 mph - N/A   Clear
11:57 PM 42.8 °F 38.6 °F 39.2 °F 87% 30.05 in 10.0 mi North 6.9 mph - N/A   Clear